User: anonymous
Location: Valdosta
(30.8330°N, 83.2790°W)
Time: 21:55:30
(UTC-04:00)
Language:

Oscar 19 - Orbit

View from above orbital plane
View from above orbital plane
View from above satellite
View from above satellite

Ground track
Ground track

The orbit data is extracted from the following two-line orbital elements,

1 20442U 90005G   14262.36534038  .00000129  00000-0  63402-4 0   513
2 20442 098.4835 198.3213 0011096 225.0763 134.9522 14.32588314288160
Epoch (UTC): 19 September 2014 08:46:05
Eccentricity: 0.0011096
inclination: 98.4835°
perigee height: 775 km
apogee height: 791 km
right ascension of ascending node: 198.3213°
argument of perigee: 225.0763°
revolutions per day: 14.32588314
mean anomaly at epoch: 134.9522°
orbit number at epoch: 28816

The dashed part of the orbit path shows where the satellite is in the earth's shadow,  

DLR